Weather History for China Lake, CA

Change the Weather History Date:

Monday, February 24, 2014

  Actual Average Record
Temperature  
Mean Temperature 56 °F -  
Max Temperature 75 °F 59 °F 75 °F (1999)
Min Temperature 37 °F 39 °F 24 °F (2007)
Degree Days  
Heating Degree Days 9    
Growing Degree Days 6 (Base 50)    
Moisture  
Dew Point 21 °F    
Average Humidity 28    
Maximum Humidity 51    
Minimum Humidity 12    
Precipitation  
Precipitation 0.00 in - - ()
Sea Level Pressure  
Sea Level Pressure 29.97 in    
Wind  
Wind Speed 2 mph (SW)    
Max Wind Speed 10 mph    
Max Gust Speed -    
Visibility 10 miles    
Events      
Averages and records for this station are not official NWS values.
T = Trace of Precipitation, MM = Missing Value Source: NWS Daily Summary

Daily Weather History Graph

Daily Weather History Graph

Search for Another Location

Airport:

Trip Planner

Search our weather history database for the weather conditions in past years. The results will help you decide how hot, cold, wet, or windy it might be!

Date:

Astronomy

Feb. 24, 2014 Rise Set
Actual Time 6:26 AM PST 5:41 PM PST
Civil Twilight 6:01 AM PST 6:07 PM PST
Nautical Twilight 5:31 AM PST 6:36 PM PST
Astronomical Twilight 5:02 AM PST 7:06 PM PST
Moon 2:24 AM PST (2/24) 12:53 PM PST (2/24)
Length of Visible Light 12h 06m
Length of Day
11h 14m
Waning Crescent, 27% of the Moon is Illuminated
Feb 24
Waning Crescent
Mar 1
New
Mar 8
First Quarter
Mar 16
Full
Mar 23
Last Quarter

Hourly Weather History & Observations

Time (PST) Temp. Windchill Dew Point Humidity Pressure Visibility Wind Dir Wind Speed Gust Speed Precip Events Conditions
12:56 AM 46.9 °F - 21.9 °F 37% 29.97 in 10.0 mi Calm Calm - N/A   Clear
1:56 AM 42.1 °F 39.2 °F 19.0 °F 40% 29.98 in 10.0 mi West 4.6 mph - N/A   Clear
2:56 AM 43.0 °F 40.3 °F 21.9 °F 43% 29.97 in 10.0 mi SE 4.6 mph - N/A   Clear
3:56 AM 41.0 °F 38.0 °F 21.9 °F 47% 29.98 in 10.0 mi WSW 4.6 mph - N/A   Clear
4:56 AM 39.9 °F 35.8 °F 23.0 °F 51% 29.98 in 10.0 mi WSW 5.8 mph - N/A   Clear
5:56 AM 37.0 °F - 19.0 °F 48% 30.00 in 10.0 mi Calm Calm - N/A   Clear
6:56 AM 37.9 °F - 19.0 °F 47% 30.03 in 10.0 mi Calm Calm - N/A   Clear
7:56 AM 46.9 °F - 24.1 °F 41% 30.04 in 10.0 mi Calm Calm - N/A   Clear
8:56 AM 54.0 °F - 23.0 °F 30% 30.04 in 10.0 mi Calm Calm - N/A   Clear
9:56 AM 62.1 °F - 24.1 °F 23% 30.04 in 10.0 mi Calm Calm - N/A   Clear
10:56 AM 68.0 °F - 24.1 °F 19% 30.02 in 10.0 mi Calm Calm - N/A   Clear
11:56 AM 70.0 °F - 24.1 °F 18% 30.00 in 10.0 mi Variable 3.5 mph - N/A   Clear
12:56 PM 73.9 °F - 23.0 °F 15% 29.96 in 10.0 mi North 5.8 mph - N/A   Clear
1:56 PM 75.0 °F - 21.9 °F 14% 29.94 in 10.0 mi Calm Calm - N/A   Clear
2:56 PM 75.0 °F - 21.0 °F 13% 29.92 in 10.0 mi Calm Calm - N/A   Clear
3:56 PM 75.9 °F - 19.9 °F 12% 29.91 in 10.0 mi NNE 9.2 mph - N/A   Clear
4:56 PM 75.0 °F - 19.9 °F 13% 29.91 in 10.0 mi NNE 4.6 mph - N/A   Clear
5:56 PM 71.1 °F - 19.9 °F 14% 29.92 in 10.0 mi Calm Calm - N/A   Clear
6:56 PM 63.0 °F - 19.0 °F 18% 29.94 in 10.0 mi SSE 3.5 mph - N/A   Clear
7:56 PM 57.0 °F - 17.1 °F 21% 29.96 in 10.0 mi South 5.8 mph - N/A   Clear
8:56 PM 59.0 °F - 17.1 °F 20% 29.96 in 10.0 mi SSW 10.4 mph - N/A   Clear
9:56 PM 52.0 °F - 17.1 °F 25% 29.96 in 10.0 mi Calm Calm - N/A   Clear
10:56 PM 50.0 °F - 15.1 °F 25% 29.97 in 10.0 mi Calm Calm - N/A   Clear
11:56 PM 50.0 °F - 18.0 °F 28% 29.96 in 10.0 mi SW 4.6 mph - N/A   Clear